FW8022 Weather Reports


Display with metric or nautical units.
time (UTC)temp
F
wind
direction
speed
MPH
gust
MPH
rain 1hr
in
rain 24hr
in
rain mn
in
humidity
%
barometer
mb
20260903205538 67 227 7.0 13.0 0.00 0.00 0.00 80 1012.9
20260903205037 68 161 6.0 13.0 0.00 0.00 0.00 80 1012.9
20260903204547 67 189 8.0 11.0 0.00 0.00 0.00 79 1012.9
20260903204036 67 219 4.0 14.0 0.00 0.00 0.00 80 1012.8
20260903203536 67 203 6.0 14.0 0.00 0.00 0.00 79 1012.9
20260903203105 67 211 4.0 10.0 0.00 0.00 0.00 79 1012.9
20260903202537 67 207 5.0 10.0 0.00 0.00 0.00 80 1012.9
20260903202037 67 222 5.0 10.0 0.00 0.00 0.00 80 1012.9
20260903201553 67 198 5.0 10.0 0.00 0.00 0.00 80 1012.8
20260903201037 67 212 4.0 14.0 0.00 0.00 0.00 79 1012.8
20260903200537 68 223 5.0 14.0 0.00 0.00 0.00 78 1012.9
20260903200052 68 199 6.0 17.0 0.00 0.00 0.00 78 1013.0
20260903195538 68 205 7.0 17.0 0.00 0.00 0.00 78 1013.0
20260903195036 68 184 8.0 17.0 0.00 0.00 0.00 77 1013.2
20260903194548 68 168 8.0 15.0 0.00 0.00 0.00 77 1013.2
20260903194037 68 197 6.0 15.0 0.00 0.00 0.00 79 1013.3
20260903193536 67 175 6.0 13.0 0.00 0.00 0.00 79 1013.3
20260903193053 68 215 5.0 13.0 0.00 0.00 0.00 78 1013.3
20260903192544 68 206 5.0 10.0 0.00 0.00 0.00 78 1013.3
20260903192040 68 228 6.0 10.0 0.00 0.00 0.00 77 1013.3
20260903191551 68 236 4.0 10.0 0.00 0.00 0.00 78 1013.3
20260903191039 68 211 4.0 9.0 0.00 0.00 0.00 77 1013.3
20260903190541 69 200 4.0 10.0 0.00 0.00 0.00 76 1013.4
20260903190051 69 196 5.0 10.0 0.00 0.00 0.00 75 1013.4
20260903185540 69 240 3.0 10.0 0.00 0.00 0.00 77 1013.4
20260903185038 68 217 5.0 13.0 0.00 0.00 0.00 77 1013.4
20260903184555 67 241 6.0 13.0 0.00 0.00 0.00 78 1013.4
20260903184039 67 192 7.0 12.0 0.00 0.00 0.00 78 1013.5
20260903183536 67 203 4.0 11.0 0.00 0.00 0.00 80 1013.5
20260903183053 66 170 6.0 12.0 0.00 0.00 0.00 80 1013.5
20260903182539 66 205 7.0 12.0 0.00 0.00 0.00 81 1013.5
20260903182038 66 209 6.0 13.0 0.00 0.00 0.00 81 1013.6
20260903181551 66 190 7.0 13.0 0.00 0.00 0.00 81 1013.6
20260903181038 65 227 6.0 13.0 0.00 0.00 0.00 81 1013.6
20260903180539 65 142 7.0 12.0 0.00 0.00 0.00 82 1013.6
20260903180051 65 200 5.0 12.0 0.00 0.00 0.00 81 1013.6
20260903175538 65 173 7.0 12.0 0.00 0.00 0.00 81 1013.5
20260903175037 65 197 5.0 10.0 0.00 0.00 0.00 81 1013.5
20260903174558 65 201 4.0 9.0 0.00 0.00 0.00 81 1013.5
20260903174040 65 201 4.0 10.0 0.00 0.00 0.00 81 1013.5
20260903173538 65 221 5.0 14.0 0.00 0.00 0.00 82 1013.5
20260903173058 65 250 4.0 14.0 0.00 0.00 0.00 82 1013.5
20260903172539 64 179 6.0 13.0 0.00 0.00 0.00 83 1013.5
20260903172039 64 219 4.0 10.0 0.00 0.00 0.00 83 1013.5
20260903171553 64 192 5.0 10.0 0.00 0.00 0.00 83 1013.5
20260903171039 64 191 6.0 10.0 0.00 0.00 0.00 82 1013.5
20260903170538 64 161 5.0 10.0 0.00 0.00 0.00 82 1013.6
20260903170051 64 219 5.0 10.0 0.00 0.00 0.00 82 1013.7
20260903165538 64 229 4.0 10.0 0.00 0.00 0.00 82 1013.7
20260903165042 64 181 5.0 9.0 0.00 0.00 0.00 82 1013.7
20260903164602 64 176 5.0 11.0 0.00 0.00 0.00 82 1013.7
20260903164039 64 234 3.0 11.0 0.00 0.00 0.00 82 1013.8
20260903163541 64 173 5.0 10.0 0.00 0.00 0.00 82 1013.8
20260903163054 64 252 3.0 8.0 0.00 0.00 0.00 83 1013.8
20260903162540 63 228 4.0 9.0 0.00 0.00 0.00 83 1013.8
20260903162037 63 214 6.0 14.0 0.00 0.00 0.00 83 1013.8
20260903161559 63 193 4.0 14.0 0.00 0.00 0.00 83 1013.9
20260903161036 63 204 7.0 14.0 0.00 0.00 0.00 83 1013.9
20260903160536 63 191 4.0 9.0 0.00 0.00 0.00 83 1013.9
20260903160051 63 183 4.0 7.0 0.00 0.00 0.00 83 1013.9
20260903155540 63 192 4.0 8.0 0.00 0.00 0.00 83 1014.0
20260903155036 63 196 3.0 8.0 0.00 0.00 0.00 84 1014.0
20260903154556 63 167 4.0 8.0 0.00 0.00 0.00 84 1013.8
20260903154037 63 203 4.0 8.0 0.00 0.00 0.00 84 1013.7
20260903153536 63 187 3.0 7.0 0.00 0.00 0.00 85 1013.9
20260903153054 62 198 3.0 6.0 0.00 0.00 0.00 85 1013.9
20260903152537 62 186 2.0 4.0 0.00 0.00 0.00 85 1013.9
20260903152037 62 173 2.0 5.0 0.00 0.00 0.00 86 1014.0
20260903151553 62 196 0.0 5.0 0.00 0.00 0.00 86 1014.0
20260903151036 61 184 1.0 5.0 0.00 0.00 0.00 86 1013.9
20260903150536 61 158 0.0 1.0 0.00 0.00 0.00 86 1013.9
20260903150108 61 158 0.0 3.0 0.00 0.00 0.00 86 1013.9
20260903145537 61 158 0.0 3.0 0.00 0.00 0.00 87 1013.8
20260903145037 61 158 0.0 3.0 0.00 0.00 0.00 88 1013.8
20260903144547 61 158 0.0 4.0 0.00 0.00 0.00 88 1013.8
20260903144037 60 138 1.0 4.0 0.00 0.00 0.00 89 1013.8
20260903143537 60 157 1.0 3.0 0.00 0.00 0.00 90 1013.8
20260903143056 60 157 1.0 3.0 0.00 0.00 0.00 90 1013.8
20260903142537 60 146 1.0 3.0 0.00 0.00 0.00 90 1013.8
20260903142037 59 146 1.0 3.0 0.00 0.00 0.00 90 1013.7
20260903141551 59 0 0.0 2.0 0.00 0.00 0.00 91 1013.7
20260903141036 59 0 0.0 4.0 0.00 0.00 0.00 91 1013.6
20260903140536 59 193 1.0 4.0 0.00 0.00 0.00 91 1013.7
20260903140053 59 172 1.0 4.0 0.00 0.00 0.00 91 1013.7
20260903135536 59 171 1.0 4.0 0.00 0.00 0.00 91 1013.7
20260903135036 59 146 0.0 6.0 0.00 0.00 0.00 92 1013.7
20260903134616 59 179 1.0 6.0 0.00 0.00 0.00 92 1013.7
20260903134034 59 187 2.0 6.0 0.00 0.00 0.00 92 1013.7
20260903133535 59 145 1.0 4.0 0.00 0.00 0.00 92 1013.6
20260903133100 58 0 0.0 2.0 0.00 0.00 0.00 92 1013.6
20260903132532 58 0 0.0 2.0 0.00 0.00 0.00 92 1013.6
20260903132036 59 186 0.0 1.0 0.00 0.00 0.00 92 1013.7
20260903131552 58 0 0.0 1.0 0.00 0.00 0.00 92 1013.7
20260903131036 59 0 0.0 1.0 0.00 0.00 0.00 92 1013.7
20260903130534 59 0 0.0 2.0 0.00 0.00 0.00 92 1013.6
20260903130101 59 0 0.0 2.0 0.00 0.00 0.00 92 1013.6
20260903125536 59 0 0.0 2.0 0.00 0.00 0.00 92 1013.6
20260903125033 59 186 0.0 2.0 0.00 0.00 0.00 92 1013.6
20260903124600 59 0 0.0 3.0 0.00 0.00 0.00 92 1013.6
20260903124036 59 186 1.0 3.0 0.00 0.00 0.00 92 1013.6
20260903123540 59 186 0.0 3.0 0.00 0.00 0.00 92 1013.6
20260903123051 59 0 0.0 2.0 0.00 0.00 0.00 92 1013.6
20260903122533 59 186 0.0 2.0 0.00 0.00 0.00 91 1013.6
20260903122036 59 186 0.0 3.0 0.00 0.00 0.00 92 1013.8
20260903121553 59 0 0.0 3.0 0.00 0.00 0.00 92 1013.8
20260903121033 59 186 0.0 2.0 0.00 0.00 0.00 92 1013.8
20260903120534 59 0 0.0 3.0 0.00 0.00 0.00 92 1013.8
20260903120118 59 186 1.0 3.0 0.00 0.00 0.00 92 1013.9
20260903115532 59 186 1.0 4.0 0.00 0.00 0.00 91 1013.9
20260903115039 59 216 1.0 5.0 0.00 0.00 0.00 91 1014.0
20260903114553 59 212 2.0 5.0 0.00 0.00 0.00 92 1014.0
20260903114033 59 188 2.0 4.0 0.00 0.00 0.00 91 1014.1
20260903113537 60 179 1.0 4.0 0.00 0.00 0.00 91 1014.1
20260903113056 60 149 1.0 3.0 0.00 0.00 0.00 91 1014.2
20260903112537 60 195 0.0 3.0 0.00 0.00 0.00 91 1014.2
20260903112037 60 173 1.0 4.0 0.00 0.00 0.00 92 1014.3
20260903111551 60 184 1.0 5.0 0.00 0.00 0.00 92 1014.3
20260903111039 60 201 1.0 5.0 0.00 0.00 0.00 92 1014.4
20260903110536 60 160 1.0 4.0 0.00 0.00 0.00 91 1014.4
20260903110044 60 195 1.0 4.0 0.00 0.00 0.00 91 1014.4
20260903105537 60 195 2.0 4.0 0.00 0.00 0.00 91 1014.4
20260903105036 60 195 1.0 5.0 0.00 0.00 0.00 91 1014.5
20260903104604 60 193 2.0 5.0 0.00 0.00 0.00 91 1014.5
20260903104040 60 176 2.0 7.0 0.00 0.00 0.00 91 1014.6
20260903103532 60 186 2.0 7.0 0.00 0.00 0.00 91 1014.6
20260903103053 60 171 1.0 6.0 0.00 0.00 0.00 91 1014.5
20260903102535 60 191 2.0 5.0 0.00 0.00 0.00 91 1014.5
20260903102036 60 207 2.0 5.0 0.00 0.00 0.00 92 1014.6
20260903101552 60 191 2.0 5.0 0.00 0.00 0.00 91 1014.5
20260903101036 60 212 2.0 4.0 0.00 0.00 0.00 91 1014.6
20260903100533 60 183 2.0 4.0 0.00 0.00 0.00 91 1014.6
20260903100056 60 196 2.0 4.0 0.00 0.00 0.00 92 1014.6
20260903095537 60 210 2.0 4.0 0.00 0.00 0.00 92 1014.7
20260903095037 60 198 1.0 4.0 0.00 0.00 0.00 92 1014.6
20260903094604 60 186 1.0 3.0 0.00 0.00 0.00 92 1014.7
20260903094038 59 186 1.0 3.0 0.00 0.00 0.00 92 1014.7
20260903093537 59 186 1.0 4.0 0.00 0.00 0.00 92 1014.7
20260903093052 59 186 1.0 5.0 0.00 0.00 0.00 92 1014.8
20260903092538 59 180 2.0 5.0 0.00 0.00 0.00 92 1014.8
20260903092039 59 192 1.0 4.0 0.00 0.00 0.00 92 1014.9
20260903091602 59 207 1.0 3.0 0.00 0.00 0.00 92 1014.9
20260903091038 59 192 1.0 4.0 0.00 0.00 0.00 92 1014.9
20260903090539 59 169 1.0 4.0 0.00 0.00 0.00 92 1015.0
20260903090058 59 182 1.0 4.0 0.00 0.00 0.00 93 1015.0
20260903085536 59 177 1.0 4.0 0.00 0.00 0.00 93 1015.0
20260903085037 59 171 0.0 2.0 0.00 0.00 0.00 93 1015.0
20260903084555 59 171 0.0 2.0 0.00 0.00 0.00 93 1015.0
20260903084038 59 0 0.0 2.0 0.00 0.00 0.00 93 1015.0
20260903083541 59 171 1.0 2.0 0.00 0.00 0.00 93 1015.1
20260903083049 59 171 0.0 3.0 0.00 0.00 0.00 93 1015.0
20260903082538 59 171 1.0 3.0 0.00 0.00 0.00 93 1015.0
20260903082038 59 182 1.0 3.0 0.00 0.00 0.00 93 1015.1
20260903081554 59 159 1.0 3.0 0.00 0.00 0.00 93 1015.1
20260903081037 59 188 1.0 4.0 0.00 0.00 0.00 93 1015.1
20260903080539 59 204 1.0 4.0 0.00 0.00 0.00 93 1015.2
20260903080052 59 188 2.0 4.0 0.00 0.00 0.00 93 1015.2
20260903075538 59 203 2.0 3.0 0.00 0.00 0.00 93 1015.1
20260903075037 59 203 1.0 2.0 0.00 0.00 0.00 93 1015.1
20260903074552 59 203 1.0 3.0 0.00 0.00 0.00 93 1015.0
20260903074038 59 203 1.0 4.0 0.00 0.00 0.00 93 1015.0
20260903073539 59 203 2.0 4.0 0.00 0.00 0.00 93 1015.0
20260903073059 59 197 1.0 4.0 0.00 0.00 0.00 93 1015.0
20260903072537 59 223 1.0 3.0 0.00 0.00 0.00 93 1015.0
20260903072038 59 223 1.0 3.0 0.00 0.00 0.00 93 1014.9
20260903071554 59 223 1.0 3.0 0.00 0.00 0.00 93 1014.9
20260903071039 59 223 1.0 4.0 0.00 0.00 0.00 93 1015.0
20260903070538 59 223 2.0 4.0 0.00 0.00 0.00 93 1015.0
20260903070053 60 223 1.0 3.0 0.00 0.00 0.00 93 1015.0
20260903065538 60 223 1.0 2.0 0.00 0.00 0.00 93 1015.0
20260903065038 60 223 0.0 3.0 0.00 0.00 0.00 93 1015.0
20260903064559 60 223 1.0 3.0 0.00 0.00 0.00 93 1015.0
20260903064038 60 223 1.0 3.0 0.00 0.00 0.00 92 1015.0
20260903063537 60 223 0.0 3.0 0.00 0.00 0.00 92 1015.1
20260903063106 60 223 0.0 3.0 0.00 0.00 0.00 92 1015.1
20260903062537 60 223 1.0 3.0 0.00 0.00 0.00 92 1015.1
20260903062040 60 223 1.0 3.0 0.00 0.00 0.00 92 1015.2
20260903061556 60 223 0.0 2.0 0.00 0.00 0.00 92 1015.3
20260903061038 60 223 1.0 2.0 0.00 0.00 0.00 92 1015.4
20260903060537 60 223 1.0 3.0 0.00 0.00 0.00 92 1015.5
20260903060050 60 223 1.0 3.0 0.00 0.00 0.00 92 1015.5
20260903055539 60 223 1.0 3.0 0.00 0.00 0.00 92 1015.5
20260903055040 60 223 1.0 3.0 0.00 0.00 0.00 92 1015.5
20260903054551 60 223 1.0 3.0 0.00 0.00 0.00 92 1015.6
20260903054039 60 223 1.0 3.0 0.00 0.00 0.00 92 1015.6
20260903053542 60 223 1.0 3.0 0.00 0.00 0.00 92 1015.5
20260903053110 60 0 1.0 3.0 0.00 0.00 0.00 92 1015.6
20260903052538 60 0 1.0 3.0 0.00 0.00 0.00 92 1015.7
20260903052038 60 211 1.0 3.0 0.00 0.00 0.00 92 1015.6
20260903051547 61 211 1.0 3.0 0.00 0.00 0.00 92 1015.7
20260903051037 61 209 1.0 3.0 0.00 0.00 0.00 92 1015.7
20260903050537 61 215 1.0 3.0 0.00 0.00 0.00 91 1015.8
20260903045538 61 213 1.0 3.0 0.00 0.00 0.00 91 1015.9
20260903045037 61 215 1.0 3.0 0.00 0.00 0.00 91 1015.9
20260903044559 61 213 1.0 4.0 0.00 0.00 0.00 91 1015.8
20260903044037 61 213 2.0 4.0 0.00 0.00 0.00 91 1015.8
20260903043538 61 211 1.0 5.0 0.00 0.00 0.00 91 1015.7
20260903043107 61 221 1.0 5.0 0.00 0.00 0.00 91 1015.7
20260903042537 61 203 2.0 5.0 0.00 0.00 0.00 91 1015.7
20260903042039 61 214 1.0 5.0 0.00 0.00 0.00 91 1015.7
20260903041558 61 210 1.0 5.0 0.00 0.00 0.00 91 1015.7
20260903041037 61 215 2.0 5.0 0.00 0.00 0.00 91 1015.6
20260903040538 61 221 2.0 4.0 0.00 0.00 0.00 91 1015.6
20260903040056 61 213 2.0 6.0 0.00 0.00 0.00 91 1015.6
20260903035537 61 220 2.0 6.0 0.00 0.00 0.00 91 1015.5
20260903035039 61 198 2.0 4.0 0.00 0.00 0.00 91 1015.5
20260903034557 61 215 2.0 5.0 0.00 0.00 0.00 90 1015.5
20260903034036 61 213 2.0 5.0 0.00 0.00 0.00 90 1015.4
20260903033537 61 227 1.0 5.0 0.00 0.00 0.00 90 1015.3
20260903033101 61 219 2.0 5.0 0.00 0.00 0.00 90 1015.2
20260903032537 61 208 2.0 5.0 0.00 0.00 0.00 90 1015.2
20260903032038 61 221 2.0 5.0 0.00 0.00 0.00 90 1015.2
20260903031611 61 224 1.0 4.0 0.00 0.00 0.00 90 1015.2
20260903031039 61 209 1.0 4.0 0.00 0.00 0.00 90 1015.2
20260903030538 61 209 2.0 4.0 0.00 0.00 0.00 90 1015.1
20260903030054 61 215 1.0 4.0 0.00 0.00 0.00 90 1015.1
20260903025537 61 211 2.0 4.0 0.00 0.00 0.00 89 1015.1
20260903025040 61 198 1.0 4.0 0.00 0.00 0.00 89 1015.1
20260903024551 61 202 1.0 4.0 0.00 0.00 0.00 89 1015.1
20260903024037 61 213 2.0 5.0 0.00 0.00 0.00 89 1015.1
20260903023537 61 246 2.0 5.0 0.00 0.00 0.00 89 1015.1
20260903023102 61 209 2.0 4.0 0.00 0.00 0.00 89 1015.2
20260903022537 61 223 2.0 5.0 0.00 0.00 0.00 89 1015.2
20260903022037 61 225 2.0 5.0 0.00 0.00 0.00 88 1015.3
20260903021557 61 220 2.0 5.0 0.00 0.00 0.00 88 1015.3
20260903021038 61 236 2.0 5.0 0.00 0.00 0.00 88 1015.3
20260903020535 62 223 2.0 5.0 0.00 0.00 0.00 87 1015.4
20260903020052 62 244 2.0 5.0 0.00 0.00 0.00 87 1015.6
20260903015537 62 246 2.0 5.0 0.00 0.00 0.00 88 1015.6
20260903015037 62 213 3.0 6.0 0.00 0.00 0.00 87 1015.6
20260903014559 62 203 3.0 6.0 0.00 0.00 0.00 87 1015.7
20260903014039 62 192 3.0 6.0 0.00 0.00 0.00 86 1015.6
20260903013537 62 245 3.0 6.0 0.00 0.00 0.00 86 1015.7
20260903013100 62 188 2.0 6.0 0.00 0.00 0.00 86 1015.7
20260903012537 62 218 2.0 6.0 0.00 0.00 0.00 85 1015.8
20260903012037 63 219 2.0 6.0 0.00 0.00 0.00 85 1015.8
20260903011558 63 206 3.0 6.0 0.00 0.00 0.00 85 1015.8
20260903011038 63 216 3.0 6.0 0.00 0.00 0.00 86 1015.9
20260903010537 63 197 3.0 6.0 0.00 0.00 0.00 86 1015.8
20260903010051 63 235 3.0 6.0 0.00 0.00 0.00 85 1015.8
20260903005537 63 224 3.0 5.0 0.00 0.00 0.00 84 1015.8
20260903005037 63 219 2.0 5.0 0.00 0.00 0.00 85 1015.8
20260903004552 63 238 3.0 5.0 0.00 0.00 0.00 84 1015.8
20260903004037 64 234 2.0 5.0 0.00 0.00 0.00 84 1015.9
20260903003537 64 198 2.0 5.0 0.00 0.00 0.00 84 1015.8
20260903003056 64 210 2.0 5.0 0.00 0.00 0.00 84 1015.9
20260903002537 64 219 3.0 5.0 0.00 0.00 0.00 83 1016.0
20260903002037 65 256 2.0 5.0 0.00 0.00 0.00 83 1016.0
20260903001555 64 232 2.0 5.0 0.00 0.00 0.00 84 1016.0
20260903001050 64 226 2.0 5.0 0.00 0.00 0.00 84 1016.0
20260903000537 64 228 2.0 5.0 0.00 0.00 0.00 84 1016.1
20260903000053 64 223 3.0 6.0 0.00 0.00 0.00 83 1016.1
20260902235537 65 227 2.0 6.0 0.00 0.00 0.00 84 1016.1
20260902235036 64 219 3.0 7.0 0.00 0.00 0.00 83 1016.2
20260902234601 65 229 2.0 7.0 0.00 0.00 0.00 83 1016.2
20260902234040 65 239 3.0 7.0 0.00 0.00 0.00 84 1016.2
20260902233537 64 209 3.0 6.0 0.00 0.00 0.00 85 1016.2
20260902233053 64 230 3.0 6.0 0.00 0.00 0.00 84 1016.2
20260902232540 64 235 3.0 6.0 0.00 0.00 0.00 84 1016.2
20260902232037 64 200 4.0 6.0 0.00 0.00 0.00 83 1016.2
20260902231555 65 236 3.0 6.0 0.00 0.00 0.00 83 1016.3
20260902231039 65 223 3.0 6.0 0.00 0.00 0.00 82 1016.3
20260902230537 66 240 2.0 6.0 0.00 0.00 0.00 82 1016.4
20260902230054 66 247 2.0 6.0 0.00 0.00 0.00 82 1016.5
20260902225537 65 212 2.0 5.0 0.00 0.00 0.00 83 1016.5
20260902225036 65 234 2.0 6.0 0.00 0.00 0.00 82 1016.6
20260902224551 65 211 3.0 6.0 0.00 0.00 0.00 82 1016.6
20260902224038 65 224 3.0 7.0 0.00 0.00 0.00 81 1016.6
20260902223537 65 232 3.0 7.0 0.00 0.00 0.00 81 1016.5
20260902223047 66 237 3.0 7.0 0.00 0.00 0.00 82 1016.5
20260902222537 66 217 3.0 7.0 0.00 0.00 0.00 80 1016.5
20260902222036 65 247 3.0 6.0 0.00 0.00 0.00 82 1016.5
20260902221556 65 235 3.0 7.0 0.00 0.00 0.00 81 1016.5
20260902221036 65 238 4.0 7.0 0.00 0.00 0.00 82 1016.5
20260902220537 65 242 4.0 7.0 0.00 0.00 0.00 82 1016.6
20260902220054 65 224 4.0 7.0 0.00 0.00 0.00 82 1016.6
20260902215537 65 215 3.0 7.0 0.00 0.00 0.00 82 1016.6
20260902215037 65 199 3.0 6.0 0.00 0.00 0.00 82 1016.7
20260902214553 65 173 4.0 7.0 0.00 0.00 0.00 82 1016.8
20260902214038 65 198 3.0 7.0 0.00 0.00 0.00 82 1016.8
20260902213542 65 215 4.0 7.0 0.00 0.00 0.00 82 1016.8
20260902213058 66 261 3.0 6.0 0.00 0.00 0.00 81 1016.9
20260902212537 66 223 3.0 6.0 0.00 0.00 0.00 82 1016.9
20260902212037 66 192 3.0 6.0 0.00 0.00 0.00 82 1017.0
20260902211610 65 217 3.0 6.0 0.00 0.00 0.00 81 1016.9
20260902211037 66 223 3.0 6.0 0.00 0.00 0.00 81 1016.8
20260902210536 66 214 3.0 6.0 0.00 0.00 0.00 82 1016.8
20260902210119 65 203 3.0 6.0 0.00 0.00 0.00 82 1016.8